EDT,Max TemperatureF,Mean TemperatureF,Min TemperatureF,Max Dew PointF,MeanDew PointF,Min DewpointF,Max Humidity, Mean Humidity, Min Humidity, Max Sea Level PressureIn, Mean Sea Level PressureIn, Min Sea Level PressureIn, Max VisibilityMiles, Mean VisibilityMiles, Min VisibilityMiles, Max Wind SpeedMPH, Mean Wind SpeedMPH, Max Gust SpeedMPH,PrecipitationIn, CloudCover, Events, WindDirDegrees
2013-9-1,87,78,69,70,69,66,96,83,55,29.88,29.84,29.76,10,8,2,7,2,,0.04,5,Rain-Thunderstorm,109
2013-9-2,72,69,66,70,68,66,100,96,88,29.87,29.80,29.72,10,3,0,8,3,17,2.01,8,Fog-Rain-Thunderstorm,112
2013-9-3,80,72,64,68,66,58,100,84,61,29.77,29.72,29.69,10,7,0,9,1,18,0.01,5,Fog,282
2013-9-4,81,70,60,57,55,52,83,63,40,29.88,29.83,29.76,10,10,10,12,3,22,0.00,0,,290
2013-9-5,70,60,50,59,50,38,93,69,32,30.14,29.96,29.85,10,10,10,13,4,21,0.00,4,Rain,339
2013-9-6,69,54,41,46,41,37,89,62,35,30.22,30.15,30.06,10,10,10,7,4,,0.00,0,,309
2013-9-7,79,64,50,53,48,43,83,58,36,30.05,29.94,29.81,10,10,10,7,1,,0.00,2,Rain,-1
2013-9-8,71,59,46,55,47,39,76,60,37,30.07,29.83,29.72,10,10,10,21,6,33,0.00,3,,305
2013-9-9,70,55,41,48,42,38,89,65,36,30.21,30.15,30.09,10,10,10,6,1,,0.00,0,,284
2013-9-10,72,62,52,68,59,47,93,86,77,30.12,30.06,30.01,10,10,6,6,1,,0.01,5,Rain,175
2013-9-11,93,81,69,74,69,64,100,80,48,30.04,30.00,29.90,10,6,0,16,1,40,0.11,4,Fog-Rain-Thunderstorm,238
2013-9-12,82,73,66,73,68,64,100,92,71,29.91,29.76,29.68,10,4,0,8,2,,2.37,7,Fog-Rain-Thunderstorm,168
2013-9-13,73,64,55,66,63,52,100,93,78,29.73,29.62,29.57,10,5,0,18,2,23,0.89,7,Fog-Rain-Thunderstorm,342
2013-9-14,68,60,52,54,52,48,94,79,58,30.02,29.87,29.74,10,9,2,9,4,,0.13,5,Rain,306
2013-9-15,70,56,45,52,47,42,93,71,42,30.13,30.07,30.01,10,10,10,8,1,,0.00,0,,278
2013-9-16,66,56,42,53,47,34,89,71,56,30.25,30.06,29.99,10,10,10,16,4,23,0.00,2,Rain,322
2013-9-17,64,50,37,43,38,33,90,65,40,30.42,30.34,30.27,10,10,10,10,5,18,0.00,0,,329
2013-9-18,73,57,41,50,44,38,93,67,35,30.30,30.20,30.11,10,10,10,6,1,,0.00,0,,294
2013-9-19,75,60,46,54,50,44,93,70,43,30.12,30.07,30.02,10,10,10,6,1,,0.00,0,,307
2013-9-20,75,62,48,56,51,46,100,75,42,30.09,30.03,30.01,10,10,10,8,4,,0.00,1,,346
2013-9-21,73,62,51,62,56,50,100,86,63,30.02,29.91,29.73,10,6,0,10,3,16,0.00,6,Fog,170
2013-9-22,71,60,51,64,58,40,100,84,47,29.79,29.65,29.59,10,9,0,14,6,21,0.81,6,Fog-Rain,176
2013-9-23,60,52,44,40,39,37,79,63,49,29.97,29.89,29.80,10,10,10,22,9,30,0.00,0,,301
2013-9-24,64,51,39,44,40,37,89,67,43,29.95,29.88,29.81,10,10,10,15,5,23,0.00,2,,315
2013-9-25,62,50,39,48,44,37,93,75,53,29.99,29.91,29.86,10,10,10,7,2,118,0.00,5,,354
2013-9-26,68,55,44,51,46,41,89,72,49,30.14,30.04,29.99,10,10,10,7,3,,0.00,4,,341
2013-9-27,69,60,50,53,50,48,93,75,52,30.25,30.20,30.13,10,10,10,8,5,,0.00,5,,336
2013-9-28,73,60,48,53,50,46,96,76,43,30.33,30.29,30.25,10,10,8,8,5,,0.00,0,,339
2013-9-29,66,52,39,52,45,37,100,85,48,30.26,30.20,30.12,10,7,0,7,2,,0.00,2,Fog,273
2013-9-30,69,52,39,51,44,37,100,84,52,30.13,30.05,29.96,10,7,0,9,3,,0.00,2,Fog,301